Погода в Фалмуте

Ямайка     18°29′12″N   77°39′01″W
темп.,
°C
ветер,
м/с
пор.,
м/с
влажн.,
%
обл.,
%
осадки,
мм/ч
давл.,
гПа
погр.,
м
25 февраля, чт
чт2501:00+22юв238550 0.3 1017180
04:00+22вюв34865 0.2 1015471
07:00+22вюв45878 0.2 1017397
10:00+26в686919 0.0 10181077
13:00+27всв787010 0.1 1017813
16:00+26всв67710 0.3 1015728
19:00+24в57810 0.7 1015421
22:00+23вюв35820 0.0 1017400
26 февраля, пт
пт2601:00+22вюв47871 0.0 1016558
04:00+22в598623 0.1 1015634
07:00+23в6118735 0.6 1016785
10:00+26в576478 0.1 10171072
13:00+27всв896743 0.1 1016886
16:00+26всв911730 0.1 1014811
19:00+24в710801 0.4 1015581
22:00+22вюв58790 0.0 1017442
27 февраля, сб
сб2701:00+21вюв58851 0.0 1017637
04:00+24в7118112 0.1 10161012
07:00+24в811826 0.1 10171056
10:00+26всв8107228 0.1 10181135
13:00+27всв796716 0.1 1016959
16:00+26всв810720 0.0 1014766
19:00+24в58820 0.0 1016467
22:00+23в58880 0.0 1017484
28 февраля, вс
вс2801:00+23в611853 0.0 1017771
04:00+24в7118514 0.1 1015850
07:00+23в598611 0.1 1016661
10:00+27в69665 0.0 10181025
13:00+27всв810653 0.0 10161081
16:00+26всв9117112 0.0 1014888
19:00+24в68806 0.0 1015564
22:00+23вюв46880 0.0 1017450
1 марта, пн
пн101:00+23вюв58861 0.0 1015609
04:00+24в7118218 0.0 1014923
07:00+24в588517 0.1 1015616
10:00+27в46640 0.0 1017975
13:00+26всв78742 0.1 1015728
16:00+26всв710762 0.5 1013741
19:00+24в46831 0.7 1014435
22:00+23вюв23840 0.0 1015322